ECHOSTAR 21

Last updated on Fri Dec 19 2025 00:02:52 GMT+0000 (Coordinated Universal Time)

1 42749U 17032A 25352.62736174 .00000091 00000+0 00000+0 0 9990 2 42749 1.8321 344.0439 0002267 275.2140 64.3476 1.00270592 31288
UTC large
Height (km)
Speed (km/s)
/
Latitude / Longitude
Inclination (degrees)
Orbital Period (minutes)
Azimuth
Elevation
Range (km)
Doppler Factor

Next 0 passes for location: London (51.5072 / 0.1276)

Sorry there are no passes over London.